星链-32825 (STARLINK-32825)

导读

STARLINK-32825是美国太空探索技术公司 SpaceX 星链互联网卫星星座的一员,于2025年1月24日发射升空。星链星座旨在为全球提供覆盖广泛的低延迟宽带互联网服务,该卫星入轨后,将进一步扩展星链网络的覆盖范围与服务容量,助力全球卫星互联网服务能力提升。

基本信息
目录编号:
62825
目录名称:
STARLINK-32825
国际标识:
2025-018V
轨道中心:
EARTH
卫星名称:
星链-32825
卫星全名:
星链-32825 (STARLINK-32825)
卫星状态:
在轨 (已飞行588 天)
发射日期:
2025-01-24 UTC
国别 :
美国 (US)
星等 :
--
轨道信息
数据来源 国际轨道数据
星历时间: 2026-09-04T06:00:02+0800
9小时前
查看轨道信息
半长轴: 6840.857km
偏心率: 0.0001398
轨道倾角: 53.160°
近地点辐角 96.158°
升交点赤经 198.988°
平近点角 298.361°
近地点: 461.763km
远地点: 463.677km
周期: 93.848分钟
每日圈数: 15.343945
详细信息
固有亮度:
5
最大亮度:
2.5
卫星平台:
Starlink V1.0
覆盖范围:
全球
运营商:
太空探索技术公司
运营商所在国:
美国
制造商(研发单位):
太空探索技术公司
制造商所在国:
美国
使用方式:
暂无
卫星简介
Starlink 计划是 SpaceX 推出的全球卫星互联网项目,通过发射低轨道卫星,为全球尤其是偏远地区提供高速、低延迟的互联网服务。自 2019 年起,Starlink 已部署数千颗卫星,旨在缩小全球数字鸿沟,推动互联网普及。该项目还为军事、航空等行业提供通信支持,带来广泛经济效益。
2D轨道图
3D轨道图
轨道高度分析图
轨道倾角分析图
轨道综合分析图
查看轨道综合分析图
交会数据列表
事件ID 空间交会对象 最接近时刻(TCA) 交会距离 交会风险概率(CRP) 交会风险指数(CRI) 操作
CDM_260905-024006-282506-602821
2026-09-05T
02:40:57+0000
0.455 km
远距离
2.22764E-4 高风险 0.82
CDM_260904-110306-282506-602821
2026-09-04T
11:03:05+0000
0.507 km
远距离
1.748669E-4 高风险 0.8
CDM_260904-031406-282506-611021
2026-09-04T
03:14:32+0000
0.625 km
远距离
1.029687E-4 高风险 0.75
CDM_260903-083906-282506-521521
2026-09-03T
08:39:04+0000
0.800 km
远距离
4.922964E-5 中风险 0.69
CDM_260904-092906-282506-602821
2026-09-04T
09:29:18+0000
0.813 km
远距离
4.655487E-5 中风险 0.68
CDM_260903-102406-282506-636721
2026-09-03T
10:24:38+0000
1.059 km
极远距离
1.379826E-5 中风险 0.58
CDM_260905-085606-282506-611021
2026-09-05T
08:56:28+0000
1.189 km
极远距离
1.28134E-5 中风险 0.57
CDM_260905-144606-282506-636721
2026-09-05T
14:46:36+0000
1.115 km
极远距离
1.157227E-5 中风险 0.56
CDM_260905-010706-282506-602821
2026-09-05T
01:07:10+0000
1.260 km
极远距离
1.044258E-5 中风险 0.55
CDM_260903-145306-282506-520621
2026-09-03T
14:53:52+0000
1.470 km
极远距离
6.206377E-6 低风险 0.51